Location: Wald
(31.7579°N, 86.6655°W)
Time: 12:24:33
(UTC+00:00)

Gbstr 26 Del rocket - Pass Details

Date: 14 July 2020
Orbit: 492 x 1264 km, 51.8° (Epoch: 08 August)

Event Time Altitude Azimuth Distance (km) Brightness Sun altitude
Rises 01:18:56 0° 210° (SSW) 2,856 6.5 -5.6°
Reaches altitude 10° 01:21:25 10° 204° (SSW) 1,861 5.5 -6.0°
Maximum altitude 01:25:21 43° 132° (SE) 732 3.0 -6.7°
Drops below altitude 10° 01:28:55 10° 59° (ENE) 1,694 5.0 -7.4°
Sets 01:31:05 0° 52° (NE) 2,566 6.0 -7.8°
